Location: Malvern Link
(52.1333°N, 2.3000°W)
Time: 07:08:36
(UTC+00:00)

Cosmos 2266 Rocket - Pass Details

Date: 18 September 2020
Orbit: 934 x 1008 km, 82.9° (Epoch: 21 October)

Event Time Altitude Azimuth Distance (km) Brightness Sun altitude
Rises 20:56:49 0° 352° (N) 3,622 7.7 -23.7°
Reaches altitude 10° 20:59:26 10° 358° (N) 2,667 6.8 -24.0°
Maximum altitude 21:05:16 46° 72° (ENE) 1,234 4.3 -24.7°
Enters shadow 21:05:35 46° 81° (E) 1,240 4.2 -24.8°
